Medford, WI

10:54 PM CDT on September 19, 2019 (GMT -0500)
Taylor County

Weather History for KMDZ - August, 2019

Change the Weather History Date:

Saturday, August 24, 2019

  Actual Average Record
Temperature  
Mean Temperature 56 °F -  
Max Temperature 69 °F 74 °F 97 °F (1948)
Min Temperature 44 °F 52 °F 37 °F (1977)
Degree Days  
Heating Degree Days 9    
Growing Degree Days 6 (Base 50)    
Moisture  
Dew Point 50 °F    
Average Humidity 76    
Maximum Humidity 99    
Minimum Humidity 52    
Precipitation  
Precipitation 0.00 in - - ()
Sea Level Pressure  
Sea Level Pressure 30.28 in    
Wind  
Wind Speed 3 mph ()    
Max Wind Speed 12 mph    
Max Gust Speed -    
Visibility 10.0 miles    
Events      
Averages and records for this station are not official NWS values.
T = Trace of Precipitation, MM = Missing Value Source: Averaged Metar Reports

Daily Weather History Graph

Daily Weather History Graph

Search for Another Location

Airport or City:

Astronomy

Aug. 24, 2019 Rise Set
Actual Time 6:13 AM CDT 7:53 PM CDT
Civil Twilight 5:42 AM CDT 8:24 PM CDT
Nautical Twilight 5:04 AM CDT 9:01 PM CDT
Astronomical Twilight 4:23 AM CDT 9:42 PM CDT
Moon 12:00 AM CDT (8/24) 3:16 PM CDT (8/24)
Length of Visible Light 14h 41m
Length of Day
13h 39m
Last Quarter, 39% of the Moon is Illuminated
Aug 24
Last Quarter
Aug 30
New
Sep 5
First Quarter
Sep 13
Full
Sep 21
Last Quarter

Hourly Weather History & Observations

Time (CDT) Temp. Windchill Dew Point Humidity Pressure Visibility Wind Dir Wind Speed Gust Speed Precip Events Conditions
12:15 AM 51.1 °F - 47.7 °F 88% 30.29 in 10.0 mi Calm Calm - N/A   Clear
12:35 AM 52.0 °F - 47.7 °F 85% 30.29 in 10.0 mi ESE 3.5 mph - N/A   Clear
12:55 AM 51.4 °F - 48.0 °F 88% 30.30 in 10.0 mi Calm Calm - N/A   Clear
1:15 AM 50.5 °F - 47.5 °F 89% 30.30 in 10.0 mi Calm Calm - N/A   Clear
1:35 AM 50.2 °F - 47.5 °F 90% 30.31 in 10.0 mi Calm Calm - N/A   Clear
1:55 AM 50.0 °F - 47.3 °F 90% 30.31 in 10.0 mi East 3.5 mph - N/A   Clear
2:15 AM 49.3 °F - 47.3 °F 93% 30.31 in 10.0 mi Calm Calm - N/A   Clear
2:35 AM 47.3 °F - 45.7 °F 94% 30.31 in 10.0 mi Calm Calm - N/A   Clear
2:55 AM 49.3 °F - 47.3 °F 93% 30.32 in 10.0 mi Calm Calm - N/A   Clear
3:15 AM 49.1 °F - 46.9 °F 92% 30.31 in 10.0 mi ESE 3.5 mph - N/A   Clear
3:35 AM 48.7 °F - 46.9 °F 93% 30.32 in 10.0 mi Calm Calm - N/A   Clear
3:55 AM 47.1 °F - 45.7 °F 95% 30.32 in 10.0 mi Calm Calm - N/A   Clear
4:15 AM 46.6 °F - 45.7 °F 97% 30.32 in 10.0 mi Calm Calm - N/A   Clear
4:35 AM 46.8 °F - 46.2 °F 98% 30.32 in 10.0 mi ESE 3.5 mph - N/A   Clear
4:55 AM 45.7 °F - 45.1 °F 98% 30.33 in 10.0 mi Calm Calm - N/A   Clear
5:15 AM 45.5 °F 44.2 °F 45.1 °F 99% 30.34 in 10.0 mi East 3.5 mph - N/A   Clear
5:35 AM 44.4 °F 42.9 °F 44.1 °F 99% 30.34 in 7.0 mi East 3.5 mph - N/A   Scattered Clouds
5:55 AM 44.6 °F - 44.4 °F 99% 30.34 in 10.0 mi Calm Calm - N/A   Overcast
6:15 AM 46.2 °F - 45.7 °F 98% 30.34 in 10.0 mi Calm Calm - N/A   Overcast
6:35 AM 47.7 °F - 46.4 °F 95% 30.34 in 10.0 mi Calm Calm - N/A   Overcast
6:55 AM 49.3 °F - 47.3 °F 93% 30.34 in 10.0 mi Calm Calm - N/A   Overcast
7:15 AM 50.7 °F - 47.5 °F 89% 30.34 in 10.0 mi ESE 3.5 mph - N/A   Mostly Cloudy
7:35 AM 52.2 °F - 48.4 °F 87% 30.34 in 10.0 mi ESE 3.5 mph - N/A   Clear
7:55 AM 53.6 °F - 48.9 °F 84% 30.34 in 10.0 mi ESE 4.6 mph - N/A   Clear
8:15 AM 55.6 °F - 50.4 °F 83% 30.35 in 10.0 mi SSE 4.6 mph - N/A   Clear
8:35 AM 56.7 °F - 50.2 °F 79% 30.34 in 10.0 mi SE 6.9 mph - N/A   Clear
8:55 AM 58.3 °F - 50.9 °F 76% 30.34 in 10.0 mi SE 6.9 mph - N/A   Clear
9:15 AM 59.7 °F - 50.9 °F 73% 30.34 in 10.0 mi SE 5.8 mph - N/A   Clear
9:35 AM 60.6 °F - 50.2 °F 68% 30.34 in 10.0 mi SE 6.9 mph - N/A   Clear
9:55 AM 61.7 °F - 49.6 °F 65% 30.34 in 10.0 mi SE 6.9 mph - N/A   Clear
10:15 AM 61.3 °F - 48.4 °F 62% 30.33 in 10.0 mi SSE 9.2 mph - N/A   Scattered Clouds
10:35 AM 61.3 °F - 48.0 °F 62% 30.33 in 10.0 mi ESE 5.8 mph - N/A   Mostly Cloudy
10:55 AM 62.6 °F - 49.3 °F 62% 30.33 in 10.0 mi SSE 10.4 mph - N/A   Overcast
11:15 AM 63.0 °F - 47.8 °F 58% 30.32 in 10.0 mi SE 6.9 mph - N/A   Mostly Cloudy
11:35 AM 63.1 °F - 48.7 °F 59% 30.31 in 10.0 mi ESE 3.5 mph - N/A   Mostly Cloudy
11:55 AM 65.5 °F - 49.5 °F 56% 30.31 in 10.0 mi SE 5.8 mph - N/A   Mostly Cloudy
12:15 PM 66.0 °F - 49.8 °F 56% 30.31 in 10.0 mi East 3.5 mph - N/A   Mostly Cloudy
12:35 PM 63.9 °F - 48.9 °F 58% 30.31 in 10.0 mi SE 6.9 mph - N/A   Mostly Cloudy
12:55 PM 64.8 °F - 50.4 °F 60% 30.30 in 10.0 mi South 9.2 mph - N/A   Overcast
1:15 PM 64.8 °F - 50.2 °F 59% 30.29 in 10.0 mi SE 5.8 mph - N/A   Overcast
1:35 PM 65.8 °F - 50.5 °F 58% 30.29 in 10.0 mi SE 5.8 mph - N/A   Mostly Cloudy
1:55 PM 67.6 °F - 49.6 °F 52% 30.29 in 10.0 mi Calm Calm - N/A   Mostly Cloudy
2:15 PM 67.6 °F - 52.0 °F 57% 30.29 in 10.0 mi South 11.5 mph - N/A   Overcast
2:35 PM 67.8 °F - 51.6 °F 56% 30.27 in 10.0 mi SSE 8.1 mph - N/A   Mostly Cloudy
2:55 PM 66.2 °F - 50.5 °F 57% 30.27 in 10.0 mi ESE 4.6 mph - N/A   Scattered Clouds
3:15 PM 65.3 °F - 50.9 °F 60% 30.26 in 10.0 mi SE 6.9 mph - N/A   Mostly Cloudy
3:35 PM 67.8 °F - 51.4 °F 56% 30.25 in 10.0 mi SSE 5.8 mph - N/A   Mostly Cloudy
3:55 PM 66.0 °F - 51.3 °F 59% 30.25 in 10.0 mi SE 5.8 mph - N/A   Mostly Cloudy
4:15 PM 67.3 °F - 52.9 °F 60% 30.24 in 10.0 mi ESE 6.9 mph - N/A   Overcast
4:35 PM 66.0 °F - 51.6 °F 60% 30.24 in 10.0 mi SE 6.9 mph - N/A   Mostly Cloudy
4:55 PM 65.8 °F - 52.3 °F 62% 30.24 in 10.0 mi SSE 4.6 mph - N/A   Mostly Cloudy
5:15 PM 65.1 °F - 52.3 °F 63% 30.23 in 10.0 mi SE 3.5 mph - N/A   Mostly Cloudy
5:35 PM 67.3 °F - 52.0 °F 58% 30.23 in 10.0 mi SSE 5.8 mph - N/A   Scattered Clouds
5:55 PM 68.9 °F - 51.4 °F 54% 30.23 in 10.0 mi SSE 8.1 mph - N/A   Scattered Clouds
6:15 PM 68.5 °F - 53.4 °F 58% 30.23 in 10.0 mi ESE 6.9 mph - N/A   Mostly Cloudy
6:35 PM 66.4 °F - 54.0 °F 64% 30.22 in 10.0 mi ESE 3.5 mph - N/A   Overcast
6:55 PM 65.8 °F - 54.7 °F 67% 30.22 in 10.0 mi SE 3.5 mph - N/A   Overcast
7:15 PM 65.3 °F - 54.5 °F 68% 30.22 in 10.0 mi ESE 3.5 mph - N/A   Overcast
7:35 PM 63.3 °F - 54.0 °F 71% 30.22 in 10.0 mi ESE 3.5 mph - N/A   Mostly Cloudy
7:55 PM 61.2 °F - 53.4 °F 76% 30.22 in 10.0 mi ESE 3.5 mph - N/A   Scattered Clouds
8:15 PM 59.9 °F - 52.9 °F 78% 30.22 in 10.0 mi East 5.8 mph - N/A   Clear
8:35 PM 59.2 °F - 53.1 °F 80% 30.22 in 10.0 mi ESE 3.5 mph - N/A   Clear
8:55 PM 58.8 °F - 53.1 °F 81% 30.22 in 10.0 mi ESE 3.5 mph - N/A   Clear
9:15 PM 58.6 °F - 53.6 °F 83% 30.23 in 10.0 mi ESE 3.5 mph - N/A   Scattered Clouds
9:35 PM 58.3 °F - 53.6 °F 84% 30.22 in 10.0 mi ESE 3.5 mph - N/A   Mostly Cloudy
9:55 PM 57.2 °F - 53.2 °F 87% 30.22 in 10.0 mi ESE 3.5 mph - N/A   Scattered Clouds
10:15 PM 57.0 °F - 53.4 °F 88% 30.21 in 10.0 mi SE 3.5 mph - N/A   Clear
10:35 PM 56.8 °F - 53.2 °F 88% 30.21 in 10.0 mi SE 3.5 mph - N/A   Clear
10:55 PM 56.5 °F - 53.1 °F 88% 30.21 in 10.0 mi ESE 3.5 mph - N/A   Clear
11:15 PM 56.7 °F - 53.1 °F 88% 30.21 in 10.0 mi SE 3.5 mph - N/A   Scattered Clouds
11:35 PM 56.1 °F - 52.7 °F 88% 30.20 in 10.0 mi ESE 5.8 mph - N/A   Scattered Clouds
11:55 PM 56.5 °F - 52.5 °F 87% 30.20 in 10.0 mi SE 4.6 mph - N/A   Clear